Regional Weather Roundup
Issued by NWS

Home | Current Version | Previous Version | Graphics & Text | Print | Product List | Glossary Off
Versions: 1 2 3 4 5 6 7 8 9 10 11 12 13 14 15 16 17 18 19 20 21 22 23 24 25 26 27 28 29 30 31 32 33 34 35 36 37 38 39 40 41 42 43 44 45 46 47 48 49 50

000
ASUS43 KMKX 210620
RWRWI

WISCONSIN REGIONAL WEATHER ROUNDUP
NATIONAL WEATHER SERVICE MILWAUKEE/SULLIVAN WI
1200 AM CST SAT JAN 21 2017

NOTE: "FAIR" INDICATES FEW OR NO CLOUDS BELOW 12,000 FEET WITH NO
SIGNIFICANT WEATHER AND/OR OBSTRUCTIONS TO VISIBILITY.

WIZ001-002-006>008-014>016-023>028-210700-
NORTHWEST WISCONSIN

CITY           SKY/WX    TMP DP  RH WIND       PRES   REMARKS
SUPERIOR ARPT  CLOUDY    35  35 100 E5        29.59S FOG     WCI  31
6HR MIN TEMP:  34; 6HR MAX TEMP:  35;

ASHLAND        CLOUDY    35  34  96 E3        29.61F FOG
6HR MIN TEMP:  34; 6HR MAX TEMP:  36; 6HR PCP:  0.08;

HAYWARD        CLOUDY    35  33  92 VRB3      29.57F FOG
6HR MIN TEMP:  35; 6HR MAX TEMP:  37; 6HR PCP:  0.01;

SIREN          CLOUDY    35  34  99 CALM      29.56F FOG
6HR MIN TEMP:  35; 6HR MAX TEMP:  35;

CUMBERLAND     FOG       32  32 100 SE5       29.56F VSB 1/4 WCI  27
RICE LAKE      FOG       34  34  99 E7        29.58F VSB 1/2 WCI  28
6HR MIN TEMP:  34; 6HR MAX TEMP:  35;

CHETEK         CLOUDY    34  34 100 SE5       29.58S FOG     WCI  30
6HR MIN TEMP:  34; 6HR MAX TEMP:  35;

LADYSMITH      CLOUDY    35  34  98 SE6       29.60F FOG     WCI  30
6HR MIN TEMP:  35; 6HR MAX TEMP:  36;

EAU CLAIRE     CLOUDY    35  34  96 E9        29.57F WCI  28
6HR MIN TEMP:  34; 6HR MAX TEMP:  35; 6HR PCP:  0.01;

MENOMONIE        N/A    N/A N/A N/A MISG        N/A
NEW RICHMOND   FOG       34  34 100 E5        29.55F VSB 3/4 WCI  30
6HR MIN TEMP:  34; 6HR MAX TEMP:  35;

OSCEOLA        CLOUDY    35  35 100 E6        29.58F FOG     WCI  30
6HR MIN TEMP:  35; 6HR MAX TEMP:  35;

$$

WIZ003>005-009-010-017-018-210700-
NORTH CENTRAL WISCONSIN

CITY           SKY/WX    TMP DP  RH WIND       PRES   REMARKS
MANITOWISH WTR CLOUDY    33  33 100 SE6       29.60S FOG     WCI  27
6HR MIN TEMP:  32; 6HR MAX TEMP:  33; 6HR PCP:  0.01;

ARBOR VITAE    CLOUDY    37  36  96 SE6       29.61F FOG     WCI  32
6HR MIN TEMP:  36; 6HR MAX TEMP:  37;

WOODRUFF       CLOUDY    37  36  96 SE6       29.61F FOG     WCI  32
6HR MIN TEMP:  36; 6HR MAX TEMP:  37;

RHINELANDER    CLOUDY    34  33  96 SE7       29.62F FOG     WCI  28
6HR MIN TEMP:  34; 6HR MAX TEMP:  35; 6HR PCP: TRACE;

EAGLE RIVER    CLOUDY    33  33 100 S5        29.61F FOG     WCI  28
6HR MIN TEMP:  33; 6HR MAX TEMP:  34;

LAND O LAKES   CLOUDY    34  34 100 SE3       29.63F FOG
6HR MIN TEMP:  34; 6HR MAX TEMP:  35; 6HR PCP:  0.02;

PHILLIPS       CLOUDY    33  33 100 SE3       29.59F
6HR MIN TEMP:  33; 6HR MAX TEMP:  34;

TOMAHAWK       CLOUDY    33  32  98 SE3       29.61F FOG
6HR MIN TEMP:  32; 6HR MAX TEMP:  33;

MEDFORD        CLOUDY    32  32  99 SE6       29.58F FOG     WCI  27
6HR MIN TEMP:  32; 6HR MAX TEMP:  33;

MERRILL        CLOUDY    33  33 100 SE3         N/A  FOG
6HR MIN TEMP:  33; 6HR MAX TEMP:  34;

$$

WIZ029-030-035-036-043>047-210700-
CENTRAL WISCONSIN

CITY           SKY/WX    TMP DP  RH WIND       PRES   REMARKS
WAUSAU         CLOUDY    33  33 100 E7        29.60F FOG     WCI  27
6HR MIN TEMP:  33; 6HR MAX TEMP:  34;

MOSINEE        FOG       32  32 100 E7        29.62F VSB 1/2 WCI  26
MARSHFIELD     FOG       33  33 100 SE8       29.58F VSB 1/4 WCI  26
6HR MIN TEMP:  33; 6HR MAX TEMP:  34;

STEVENS POINT  FOG       32  32 100 E6        29.62F VSB 1/2 WCI  26
6HR MIN TEMP:  32; 6HR MAX TEMP:  32;

WAUPACA        FOG       36  34  94 CALM      29.64F VSB 1/2
6HR MIN TEMP:  36; 6HR MAX TEMP:  37;

WAUTOMA        MIX PCPN  34  34 100 E5        29.63F VSB 1   WCI  30
6HR MIN TEMP:  34; 6HR MAX TEMP:  35;

WISC RAPIDS    FOG       34  34 100 SE6       29.61F VSB 3/4 WCI  29
6HR MIN TEMP:  34; 6HR MAX TEMP:  35;

CAMP DOUGLAS   MIX PCPN  34  34 100 E5        29.58F VSB 1/4 WCI  30
6HR MIN TEMP:  34; 6HR MAX TEMP:  35;

$$

WIZ011>013-019>022-031-037>040-048>050-210700-
NORTHEAST WISCONSIN

CITY           SKY/WX    TMP DP  RH WIND       PRES   REMARKS
ANTIGO         FOG       32  32 100 SE8       29.62F VSB 1   WCI  24
6HR MIN TEMP:  32; 6HR MAX TEMP:  32;

SHAWANO        FOG       34  33  96 NE5       29.66F VSB 1/2 WCI  30
OCONTO         CLOUDY    32  32  99 NE6       29.67F VSB 3/4 WCI  27
6HR MIN TEMP:  32; 6HR MAX TEMP:  32;

STURGEON BAY   FOG       34  33  96 CALM      29.68F VSB 1/2
6HR MIN TEMP:  34; 6HR MAX TEMP:  34;

GREEN BAY      FOG       35  35 100 NE6       29.66F VSB 1/4 WCI  30
6HR MIN TEMP:  35; 6HR MAX TEMP:  36;

MANITOWOC      MIX PCPN  36  34  92 MISG      29.67F FOG
6HR MIN TEMP:  35; 6HR MAX TEMP:  36; 6HR PCP: TRACE;

APPLETON       CLOUDY    34  34 100 E5        29.62F FOG     WCI  30
CLINTONVILLE   FOG       32  32 100 E5        29.65F VSB 1/2 WCI  27
OSHKOSH        FOG       34  33  96 E5        29.63F VSB 1/4 WCI  30
6HR MIN TEMP:  34; 6HR MAX TEMP:  35; 6HR PCP:  0.01;

$$

WIZ032>034-041-042-053>061-210700-
SOUTHWEST WISCONSIN

CITY           SKY/WX    TMP DP  RH WIND       PRES   REMARKS
LA CROSSE      CLOUDY    39  36  89 E6        29.57F WCI  35
6HR MIN TEMP:  39; 6HR MAX TEMP:  40;

SPARTA         CLOUDY    34  34 100 E6        29.59F FOG     WCI  29
6HR MIN TEMP:  33; 6HR MAX TEMP:  34;

VIROQUA        CLOUDY    34  34 100 E9        29.56F VSB 1/4 WCI  27
6HR MIN TEMP:  34; 6HR MAX TEMP:  35;

BOSCOBEL       FOG       37  36  96 NE6       29.57F VSB 1/2 WCI  32
6HR MIN TEMP:  37; 6HR MAX TEMP:  38; 6HR PCP: TRACE;

PRAIRIE DU CHI CLOUDY    37  36  96 CALM      29.55F FOG
6HR MIN TEMP:  36; 6HR MAX TEMP:  37;

PLATTEVILLE    CLOUDY    36  36 100 E10       29.55F VSB 1/2 WCI  28
6HR MIN TEMP:  36; 6HR MAX TEMP:  36;

$$

WIZ056-057-062-063-064-067-068-210700-
SOUTH CENTRAL WISCONSIN

CITY           SKY/WX    TMP DP  RH WIND       PRES   REMARKS
REEDSBURG      FOG       35  35 100 E6        29.58F VSB 3/4 WCI  30
6HR MIN TEMP:  35; 6HR MAX TEMP:  35; 6HR PCP:  0.01;

BARABOO/DELLS  FOG       35  35  99 E7        29.59F VSB<1/4 WCI  29
6HR MIN TEMP:  34; 6HR MAX TEMP:  36;

LONE ROCK      CLOUDY    37  36  96 E3        29.59F FOG
6HR MIN TEMP:  36; 6HR MAX TEMP:  37; 6HR PCP:  0.01;

MINERAL POINT  FOG       37  37 100 E7        29.55F VSB 1/4 WCI  32
MADISON        FOG       36  36 100 CALM      29.60F VSB 1/4
6HR MIN TEMP:  35; 6HR MAX TEMP:  36; 6HR PCP: TRACE;

MIDDLETON      CLOUDY    37  37 100 E3        29.60F VSB 1/4
6HR MIN TEMP:  37; 6HR MAX TEMP:  38;

WATERTOWN      FOG       36  36 100 E3        29.61F VSB 3/4
6HR MIN TEMP:  36; 6HR MAX TEMP:  36;

MONROE         LGT RAIN  36  36 100 NE3       29.57F VSB 1/2
JANESVILLE     FOG       37  37 100 E6        29.58F VSB 1/2 WCI  33
$$

WIZ051-052-058>065-066-070>072-210700-
SOUTHEAST WISCONSIN

CITY           SKY/WX    TMP DP  RH WIND       PRES   REMARKS
MILWAUKEE      FOG       38  37  97 E5        29.63F VSB 1/8 WCI  34
6HR MIN TEMP:  37; 6HR MAX TEMP:  38;

WAUKESHA       FOG       34  34 100 E5        29.63F VSB 1/4 WCI  30
MILWAUKEE/TIMM FOG       36  34  93 CALM      29.64F VSB 1/4
RACINE         LGT RAIN  38  37  97 CALM      29.64F VSB 1/4
6HR MIN TEMP:  37; 6HR MAX TEMP:  38; 6HR PCP: TRACE;

KENOSHA        LGT RAIN  38  37  97 E5        29.62F VSB 1/4 WCI  34
6HR MIN TEMP:  36; 6HR MAX TEMP:  38; 6HR PCP: TRACE;

FOND DU LAC    CLOUDY    36  33  89 SE5       29.63F FOG     WCI  32
6HR MIN TEMP:  35; 6HR MAX TEMP:  37; 6HR PCP: TRACE;

SHEBOYGAN      FOG       35  34  96 CALM      29.65F VSB 1/4
6HR MIN TEMP:  34; 6HR MAX TEMP:  36;

WEST BEND      FOG       34  34 100 E3        29.63F VSB 1/4
JUNEAU         FOG       35  35  99 E6        29.62F VSB<1/4 WCI  30
6HR MIN TEMP:  34; 6HR MAX TEMP:  35;

$$

LSZ147-162-210700-
LAKE SUPERIOR

STATION/POSITION TIME  TEMP    WIND        PRES    WAVE
                       AIR SEA DIR/SP/G            HT/PER
                 (UTC) (F)     (DEG/KT/KT) (MB)    (FT/S)
DEVILS ISLAND    0600   35     120/  7/  7 1003.4F
PORT WING        0530   36     100/  1/  3 1003.0S
SAXON HARBOR     0540   33      CALM  /  1 1002.7F
$$

LMZ867-665-643>646-210700-
LAKE MICHIGAN

STATION/POSITION TIME  TEMP    WIND        PRES    WAVE
                       AIR SEA DIR/SP/G            HT/PER
                 (UTC) (F)     (DEG/KT/KT) (MB)    (FT/S)
NORTHPORT PIER   0540   33        CALM     1005.4S
SISTER BAY       0550   33        CALM       N/A
KEWAUNEE LAKESHO 0554   35      CALM  /  3 1004.7F
SHEBOYGAN LAKESH 0600   36     1



USA.gov is the U.S. government's official web portal to all federal, state and local government web resources and services.